This demonstration page uses our WeatherBlox Daily Observations layout. Learn more.

Left ArrowRight Arrow

Hourly Observations for June 23, 2016

Temp ( °F °C ) Dew Point ( °F °C ) Humidity (%) Winds ( mph kmh ) Pressure ( in mb ) Visibility ( mi km ) Precip ( " mm )
12:53 am 00:53 Clear 71 21.7 41 5 34 34 W 6 9 29.87 1011 10 16 0.00 0.00
1:53 am 01:53 Clear 67 19.4 46 7.8 47 47 W 5 7 29.89 1012 10 16 0.00 0.00
2:53 am 02:53 Clear 66 18.9 47 8.3 50 50 Calm 29.90 1013 10 16 0.00 0.00
3:53 am 03:53 Clear 62 16.7 50 10 65 65 Calm 29.91 1013 10 16 0.00 0.00
4:53 am 04:53 Clear 62 16.7 48 8.9 60 60 Calm 29.93 1014 10 16 0.00 0.00
5:53 am 05:53 Sunny 60 15.6 49 9.4 67 67 Calm 29.95 1014 10 16 0.00 0.00
6:53 am 06:53 Sunny 63 17.2 51 10.6 65 65 Calm 29.96 1015 10 16 0.00 0.00
7:53 am 07:53 Sunny 68 20 49 9.4 51 51 Calm 29.98 1015 10 16 0.00 0.00
8:53 am 08:53 Sunny 73 22.8 47 8.3 40 40 NNE 3 6 29.98 1015 10 16 0.00 0.00
9:53 am 09:53 Sunny 78 25.6 44 6.7 30 30 SSW 3 6 29.98 1015 10 16 0.00 0.00
10:53 am 10:53 Sunny 80 26.7 41 5 25 25 VRB 5 7 29.98 1015 10 16 0.00 0.00
11:53 am 11:53 Sunny 83 28.3 42 5.6 24 24 WNW 3 6 29.98 1015 10 16 0.00 0.00
12:53 pm 12:53 Sunny 86 30 45 7.2 24 24 W 7 11 29.96 1015 10 16 0.00 0.00
1:53 pm 13:53 Sunny 89 31.7 44 6.7 21 21 SSW 10 17 29.93 1014 10 16 0.00 0.00
2:53 pm 14:53 Sunny 89 31.7 46 7.8 23 23 S 10 17 29.92 1013 10 16 0.00 0.00
3:53 pm 15:53 Sunny 91 32.8 45 7.2 20 20 S 12 19 29.91 1013 10 16 0.00 0.00
4:53 pm 16:53 Sunny 91 32.8 45 7.2 20 20 S 10 17 29.89 1012 10 16 0.00 0.00
5:53 pm 17:53 Sunny 91 32.8 46 7.8 21 21 SSE 14 22 29.88 1012 10 16 0.00 0.00
6:53 pm 18:53 Sunny 90 32.2 47 8.3 23 23 SSE 13 20 29.88 1012 10 16 0.00 0.00
7:53 pm 19:53 Sunny 88 31.1 46 7.8 23 23 SSE 8 13 29.88 1012 10 16 0.00 0.00
8:53 pm 20:53 Clear 82 27.8 55 12.8 40 40 S 9 15 29.88 1012 10 16 0.00 0.00
9:53 pm 21:53 Clear 80 26.7 48 8.9 33 33 NW 7 11 29.91 1013 10 16 0.00 0.00
10:53 pm 22:53 Clear 77 25 46 7.8 33 33 NW 3 6 29.92 1013 10 16 0.00 0.00
11:53 pm 23:53 Clear 76 24.4 39 3.9 26 26 NW 6 9 29.94 1014 10 16 0.00 0.00

Powered by AerisWeather